GJS348 KASE-KDEN

Flight info

Callsign GJS348
Flight time 0h 29m
Altitude 23000
Route LINDZ1 LINDZ IDENE JNETT SSKII4
Aircraft CRJ7/M-SDFGIRWY/S

Departure

Time 2026-05-07 02:05
Airport Aspen-Pitkin County Airport (Sardy Field) (KASE)

Arrival

Time 2026-05-07 02:34
Airport Denver International Airport (KDEN)
Time Latitude Longitude Altitude Speed Heading
2026-05-07 01:51 39.21945 -106.86527 7786 ft 0 kts 79°
2026-05-07 01:59 39.21945 -106.86526 7786 ft 1 kts 84°
2026-05-07 01:59 39.21942 -106.86517 7786 ft 1 kts 129°
2026-05-07 02:00 39.21921 -106.86518 7787 ft 6 kts 211°
2026-05-07 02:00 39.21904 -106.86531 7782 ft 0 kts 210°
2026-05-07 02:00 39.21903 -106.86532 7783 ft 0 kts 210°
2026-05-07 02:00 39.21888 -106.86542 7787 ft 7 kts 201°
2026-05-07 02:01 39.21844 -106.86539 7788 ft 7 kts 161°
2026-05-07 02:01 39.21783 -106.86511 7806 ft 12 kts 160°
2026-05-07 02:01 39.21692 -106.86469 7806 ft 15 kts 160°
2026-05-07 02:01 39.21614 -106.86431 7813 ft 9 kts 159°
2026-05-07 02:02 39.21574 -106.86410 7816 ft 4 kts 160°
2026-05-07 02:02 39.21490 -106.86371 7817 ft 20 kts 160°
2026-05-07 02:02 39.21374 -106.86316 7827 ft 16 kts 160°
2026-05-07 02:02 39.21283 -106.86272 7833 ft 12 kts 159°
2026-05-07 02:03 39.21220 -106.86252 7836 ft 8 kts 186°
2026-05-07 02:03 39.21180 -106.86290 7837 ft 7 kts 244°
2026-05-07 02:03 39.21202 -106.86354 7829 ft 10 kts 352°
2026-05-07 02:03 39.21277 -106.86386 7832 ft 28 kts 336°
2026-05-07 02:04 39.21680 -106.86581 7806 ft 94 kts 339°
2026-05-07 02:04 39.22470 -106.86959 7762 ft 141 kts 339°
2026-05-07 02:04 39.23409 -106.87396 8168 ft 143 kts 339°
2026-05-07 02:04 39.24386 -106.87879 8355 ft 160 kts 336°
2026-05-07 02:05 39.25408 -106.88485 8761 ft 162 kts 334°
2026-05-07 02:05 39.26451 -106.88908 9243 ft 157 kts 353°
2026-05-07 02:05 39.27467 -106.88504 9592 ft 159 kts 37°
2026-05-07 02:05 39.28461 -106.87777 9677 ft 174 kts
2026-05-07 02:06 39.29709 -106.87795 9966 ft 180 kts
2026-05-07 02:06 39.30696 -106.86878 10570 ft 182 kts 62°
2026-05-07 02:06 39.31048 -106.85325 11102 ft 181 kts 75°
2026-05-07 02:06 39.31307 -106.83736 11601 ft 180 kts 77°
2026-05-07 02:07 39.31515 -106.82132 12138 ft 181 kts 79°
2026-05-07 02:07 39.31857 -106.78745 12761 ft 208 kts 79°
2026-05-07 02:07 39.32060 -106.76840 13002 ft 226 kts 79°
2026-05-07 02:08 39.32286 -106.74743 13146 ft 249 kts 79°
2026-05-07 02:08 39.32551 -106.72395 13323 ft 279 kts 79°
2026-05-07 02:08 39.32845 -106.69787 13559 ft 307 kts 79°
2026-05-07 02:08 39.33178 -106.66934 13744 ft 335 kts 79°
2026-05-07 02:09 39.33537 -106.63824 13962 ft 362 kts 79°
2026-05-07 02:09 39.33914 -106.60486 14188 ft 388 kts 79°
2026-05-07 02:09 39.34300 -106.56975 14631 ft 398 kts 79°
2026-05-07 02:09 39.34683 -106.53433 15313 ft 396 kts 79°
2026-05-07 02:10 39.35051 -106.49924 16075 ft 395 kts 81°
2026-05-07 02:10 39.34803 -106.46430 16841 ft 399 kts 100°
2026-05-07 02:10 39.33964 -106.43002 17656 ft 400 kts 106°
2026-05-07 02:10 39.32929 -106.39673 18311 ft 403 kts 108°
2026-05-07 02:11 39.31861 -106.36335 18932 ft 401 kts 107°
2026-05-07 02:11 39.30792 -106.32999 19500 ft 401 kts 107°
2026-05-07 02:11 39.29761 -106.29639 20000 ft 403 kts 105°
2026-05-07 02:11 39.28761 -106.26260 20469 ft 405 kts 105°
2026-05-07 02:12 39.27747 -106.22853 20919 ft 408 kts 105°
2026-05-07 02:12 39.26722 -106.19422 21312 ft 411 kts 105°
2026-05-07 02:12 39.25701 -106.16007 21923 ft 413 kts 105°
2026-05-07 02:12 39.25080 -106.12449 22452 ft 402 kts 86°
2026-05-07 02:13 39.25307 -106.08860 22777 ft 403 kts 74°
2026-05-07 02:13 39.25926 -106.05296 22910 ft 414 kts 70°
2026-05-07 02:13 39.26663 -106.01631 22945 ft 428 kts 70°
2026-05-07 02:13 39.27409 -105.97843 22968 ft 443 kts 71°
2026-05-07 02:14 39.28098 -105.93910 22953 ft 454 kts 73°
2026-05-07 02:14 39.28755 -105.89914 22787 ft 451 kts 73°
2026-05-07 02:14 39.29402 -105.86025 22336 ft 436 kts 73°
2026-05-07 02:14 39.30034 -105.82260 21805 ft 420 kts 72°
2026-05-07 02:15 39.30645 -105.78633 21285 ft 408 kts 72°
2026-05-07 02:15 39.31237 -105.75102 20775 ft 397 kts 72°
2026-05-07 02:15 39.31814 -105.71645 20320 ft 393 kts 72°
2026-05-07 02:15 39.32396 -105.68193 19945 ft 393 kts 71°
2026-05-07 02:16 39.33264 -105.64874 19595 ft 388 kts 62°
2026-05-07 02:16 39.34401 -105.61723 19288 ft 386 kts 58°
2026-05-07 02:16 39.35613 -105.58631 18914 ft 386 kts 58°
2026-05-07 02:16 39.36831 -105.55531 18562 ft 388 kts 59°
2026-05-07 02:17 39.38013 -105.52362 18229 ft 394 kts 60°
2026-05-07 02:17 39.39180 -105.49141 17879 ft 398 kts 60°
2026-05-07 02:17 39.40344 -105.45941 17511 ft 401 kts 60°
2026-05-07 02:17 39.41551 -105.42667 17129 ft 399 kts 59°
2026-05-07 02:18 39.42886 -105.39677 16714 ft 371 kts 52°
2026-05-07 02:18 39.44318 -105.37015 16321 ft 350 kts 49°
2026-05-07 02:18 39.45726 -105.34551 16033 ft 332 kts 49°
2026-05-07 02:18 39.47060 -105.32196 15771 ft 317 kts 49°
2026-05-07 02:19 39.48332 -105.29930 15485 ft 307 kts 49°
2026-05-07 02:19 39.49588 -105.27659 15266 ft 313 kts 49°
2026-05-07 02:19 39.50832 -105.25381 15099 ft 314 kts 49°
2026-05-07 02:19 39.52088 -105.23076 15017 ft 312 kts 49°
2026-05-07 02:20 39.53333 -105.20790 15014 ft 309 kts 49°
2026-05-07 02:20 39.54574 -105.18515 14933 ft 311 kts 50°
2026-05-07 02:20 39.55816 -105.16194 14739 ft 315 kts 50°
2026-05-07 02:20 39.57072 -105.13846 14542 ft 318 kts 50°
2026-05-07 02:21 39.58348 -105.11481 14358 ft 321 kts 49°
2026-05-07 02:21 39.59623 -105.09117 14173 ft 319 kts 50°
2026-05-07 02:21 39.60887 -105.06770 13998 ft 316 kts 49°
2026-05-07 02:21 39.62142 -105.04439 13782 ft 314 kts 50°
2026-05-07 02:22 39.63389 -105.02122 13561 ft 312 kts 50°
2026-05-07 02:22 39.64627 -104.99818 13326 ft 310 kts 49°
2026-05-07 02:22 39.65446 -104.98301 13190 ft 309 kts 50°
2026-05-07 02:22 39.66670 -104.96024 13058 ft 305 kts 50°
2026-05-07 02:23 39.67896 -104.93739 12996 ft 303 kts 50°
2026-05-07 02:23 39.69094 -104.91502 12974 ft 301 kts 49°
2026-05-07 02:23 39.70279 -104.89282 12958 ft 298 kts 49°
2026-05-07 02:23 39.71441 -104.87114 12951 ft 295 kts 49°
2026-05-07 02:24 39.72772 -104.85140 12931 ft 285 kts 28°
2026-05-07 02:24 39.74576 -104.84204 12782 ft 281 kts
2026-05-07 02:24 39.76532 -104.83910 12547 ft 285 kts 359°
2026-05-07 02:24 39.78527 -104.83879 12318 ft 290 kts 356°
2026-05-07 02:25 39.80560 -104.83929 12073 ft 293 kts 355°
2026-05-07 02:25 39.82571 -104.83991 11830 ft 286 kts 355°
2026-05-07 02:25 39.84541 -104.84017 11575 ft 279 kts 356°
2026-05-07 02:25 39.86448 -104.84010 11322 ft 269 kts 356°
2026-05-07 02:26 39.88276 -104.83990 11131 ft 257 kts 356°
2026-05-07 02:26 39.90022 -104.83959 11024 ft 245 kts 356°
2026-05-07 02:26 39.91678 -104.83939 10970 ft 232 kts 356°
2026-05-07 02:26 39.93263 -104.83758 10970 ft 223 kts
2026-05-07 02:27 39.94783 -104.83648 10971 ft 217 kts 357°
2026-05-07 02:27 39.96292 -104.83604 10933 ft 219 kts 356°
2026-05-07 02:27 39.97861 -104.83589 10648 ft 232 kts 356°
2026-05-07 02:27 39.99494 -104.83597 10351 ft 237 kts 355°
2026-05-07 02:28 40.01153 -104.83617 10051 ft 240 kts 355°
2026-05-07 02:28 40.02834 -104.83646 9726 ft 243 kts 355°
2026-05-07 02:28 40.04535 -104.83685 9389 ft 246 kts 355°
2026-05-07 02:28 40.06243 -104.83665 9144 ft 246 kts
2026-05-07 02:29 40.07746 -104.82651 8976 ft 250 kts 44°
2026-05-07 02:29 40.08517 -104.80621 8748 ft 256 kts 79°
2026-05-07 02:29 40.08705 -104.78290 8528 ft 260 kts 85°
2026-05-07 02:29 40.08815 -104.75939 8302 ft 264 kts 86°
2026-05-07 02:30 40.08693 -104.73552 8123 ft 264 kts 111°
2026-05-07 02:30 40.07675 -104.71679 8050 ft 249 kts 142°
2026-05-07 02:30 40.06343 -104.70295 8005 ft 241 kts 145°
2026-05-07 02:30 40.04982 -104.68995 7978 ft 244 kts 150°
2026-05-07 02:31 40.03432 -104.68318 7967 ft 229 kts 182°
2026-05-07 02:31 40.01877 -104.68393 7874 ft 221 kts 187°
2026-05-07 02:31 40.00352 -104.68522 7597 ft 215 kts 185°
2026-05-07 02:31 39.98902 -104.68575 7315 ft 202 kts 184°
2026-05-07 02:32 39.97562 -104.68604 7004 ft 184 kts 183°
2026-05-07 02:32 39.96365 -104.68623 6775 ft 161 kts 182°
2026-05-07 02:32 39.95343 -104.68623 6535 ft 136 kts 182°
2026-05-07 02:32 39.94380 -104.68637 6315 ft 141 kts 182°
2026-05-07 02:33 39.93384 -104.68650 6116 ft 145 kts 181°
2026-05-07 02:33 39.92397 -104.68654 5940 ft 130 kts 180°
2026-05-07 02:33 39.91481 -104.68663 5730 ft 134 kts 179°
2026-05-07 02:33 39.90564 -104.68669 5577 ft 130 kts 180°
2026-05-07 02:34 39.89666 -104.68682 5392 ft 128 kts 180°
2026-05-07 02:34 39.88897 -104.68690 5364 ft 96 kts 180°
2026-05-07 02:34 39.88306 -104.68696 5364 ft 78 kts 181°
2026-05-07 02:34 39.87915 -104.68695 5366 ft 40 kts 174°
2026-05-07 02:35 39.87708 -104.68617 5365 ft 25 kts 152°
2026-05-07 02:35 39.87570 -104.68518 5364 ft 20 kts 156°
2026-05-07 02:35 39.87437 -104.68492 5364 ft 19 kts 181°
2026-05-07 02:35 39.87306 -104.68494 5364 ft 19 kts 180°
2026-05-07 02:36 39.87166 -104.68496 5364 ft 21 kts 180°
2026-05-07 02:36 39.87009 -104.68497 5364 ft 24 kts 180°
2026-05-07 02:36 39.86837 -104.68499 5364 ft 26 kts 180°
2026-05-07 02:36 39.86663 -104.68501 5364 ft 25 kts 180°
2026-05-07 02:37 39.86496 -104.68503 5364 ft 24 kts 180°
2026-05-07 02:37 39.86329 -104.68505 5364 ft 24 kts 181°
2026-05-07 02:37 39.86183 -104.68506 5364 ft 9 kts 175°
2026-05-07 02:37 39.86142 -104.68451 5364 ft 11 kts 97°
2026-05-07 02:38 39.86141 -104.68334 5364 ft 15 kts 90°
2026-05-07 02:38 39.86140 -104.68178 5364 ft 19 kts 90°
2026-05-07 02:38 39.86139 -104.67991 5364 ft 21 kts 90°
2026-05-07 02:38 39.86138 -104.67804 5364 ft 20 kts 91°
2026-05-07 02:39 39.86135 -104.67620 5364 ft 20 kts 90°
2026-05-07 02:39 39.86134 -104.67439 5364 ft 20 kts 90°
2026-05-07 02:39 39.86133 -104.67262 5364 ft 19 kts 90°
2026-05-07 02:39 39.86154 -104.67141 5363 ft 6 kts 62°
2026-05-07 02:40 39.86172 -104.67106 5363 ft 5 kts 49°
2026-05-07 02:40 39.86205 -104.67083 5363 ft 6 kts
2026-05-07 02:40 39.86243 -104.67083 5364 ft 4 kts
2026-05-07 02:40 39.86255 -104.67083 5364 ft 0 kts